Location: Casilda
(33.0440°S, 61.1680°W)
Time: 16:07:16
(UTC-03:00)

ISS - Pass Details

Date: 07 December 2017
Orbit: 402 x 407 km, 51.6° (Epoch: 11 December)

Event Time Altitude Azimuth Distance (km) Brightness Sun altitude
Exits shadow 04:17:44 13° 242° (WSW) 1,302 -1.5 -16.5°
Maximum altitude 04:19:09 16° 213° (SSW) 1,160 -1.4 -16.2°
Drops below altitude 10° 04:21:20 10° 171° (S) 1,483 -0.2 -15.9°
Sets 04:24:01 0° 149° (SSE) 2,351 1.5 -15.5°
